| time (UTC) | temp F | wind direction | speed MPH | gust MPH | rain 1hr in | rain 24hr in | rain mn in | humidity % | barometer mb |
| 20260502152037 | 65 | 96 | 8.0 | 11.0 | 0.00 | 0.00 | 0.00 | 81 | 1020.9 |
| 20260502151537 | 65 | 128 | 7.0 | 11.0 | 0.00 | 0.00 | 0.00 | 81 | 1021.1 |
| 20260502151043 | 65 | 92 | 7.0 | 11.0 | 0.00 | 0.00 | 0.00 | 80 | 1021.2 |
| 20260502150536 | 66 | 113 | 7.0 | 11.0 | 0.00 | 0.00 | 0.00 | 80 | 1021.2 |
| 20260502123537 | 66 | 75 | 9.0 | 13.0 | 0.00 | 0.00 | 0.00 | 83 | 1022.6 |
| 20260502123037 | 66 | 87 | 7.0 | 13.0 | 0.00 | 0.00 | 0.00 | 83 | 1022.6 |
| 20260502122537 | 65 | 111 | 9.0 | 12.0 | 0.00 | 0.00 | 0.00 | 83 | 1022.7 |
| 20260502122037 | 65 | 135 | 9.0 | 13.0 | 0.00 | 0.00 | 0.00 | 84 | 1022.7 |
| 20260502121536 | 65 | 101 | 9.0 | 13.0 | 0.00 | 0.00 | 0.00 | 85 | 1022.7 |
| 20260502121037 | 65 | 109 | 9.0 | 12.0 | 0.00 | 0.00 | 0.00 | 84 | 1022.7 |
| 20260502120536 | 65 | 123 | 7.0 | 12.0 | 0.00 | 0.00 | 0.00 | 84 | 1022.7 |
| 20260502115536 | 65 | 60 | 9.0 | 14.0 | 0.00 | 0.00 | 0.00 | 84 | 1022.6 |
| 20260502115320 | 65 | 99 | 9.0 | 14.0 | 0.00 | 0.00 | 0.00 | 84 | 1022.7 |
| 20260502114536 | 65 | 93 | 9.0 | 14.0 | 0.00 | 0.00 | 0.00 | 84 | 1022.7 |
| 20260502114034 | 65 | 148 | 10.0 | 14.0 | 0.00 | 0.00 | 0.00 | 84 | 1022.8 |
| 20260502113814 | 65 | 108 | 11.0 | 15.0 | 0.00 | 0.00 | 0.00 | 84 | 1022.8 |
| 20260502113035 | 65 | 114 | 7.0 | 15.0 | 0.00 | 0.00 | 0.00 | 84 | 1022.8 |
| 20260502112535 | 65 | 115 | 10.0 | 15.0 | 0.00 | 0.00 | 0.00 | 84 | 1022.8 |
| 20260502112035 | 65 | 94 | 9.0 | 15.0 | 0.00 | 0.00 | 0.00 | 83 | 1022.7 |
| 20260502111535 | 65 | 49 | 8.0 | 13.0 | 0.00 | 0.00 | 0.00 | 84 | 1022.7 |
| 20260502111035 | 66 | 70 | 7.0 | 15.0 | 0.00 | 0.00 | 0.00 | 83 | 1022.8 |
| 20260502110535 | 65 | 98 | 9.0 | 15.0 | 0.00 | 0.00 | 0.00 | 84 | 1022.9 |
| 20260502110312 | 65 | 99 | 9.0 | 14.0 | 0.00 | 0.00 | 0.00 | 84 | 1022.9 |
| 20260502105535 | 65 | 81 | 9.0 | 13.0 | 0.00 | 0.00 | 0.00 | 83 | 1023.0 |
| 20260502105035 | 65 | 103 | 9.0 | 12.0 | 0.00 | 0.00 | 0.00 | 83 | 1023.1 |
| 20260502104823 | 65 | 89 | 7.0 | 13.0 | 0.00 | 0.00 | 0.00 | 83 | 1023.2 |
| 20260502104035 | 65 | 86 | 9.0 | 13.0 | 0.00 | 0.00 | 0.00 | 83 | 1023.3 |
| 20260502103535 | 65 | 114 | 7.0 | 13.0 | 0.00 | 0.00 | 0.00 | 82 | 1023.2 |
| 20260502103037 | 65 | 100 | 9.0 | 13.0 | 0.00 | 0.00 | 0.00 | 82 | 1023.1 |
| 20260502102536 | 66 | 104 | 9.0 | 13.0 | 0.00 | 0.00 | 0.00 | 82 | 1023.1 |
| 20260502102034 | 65 | 86 | 8.0 | 14.0 | 0.00 | 0.00 | 0.00 | 82 | 1023.1 |
| 20260502101535 | 65 | 103 | 8.0 | 14.0 | 0.00 | 0.00 | 0.00 | 81 | 1023.1 |
| 20260502101035 | 65 | 87 | 9.0 | 13.0 | 0.00 | 0.00 | 0.00 | 81 | 1023.1 |
| 20260502100539 | 66 | 112 | 6.0 | 11.0 | 0.00 | 0.00 | 0.00 | 81 | 1023.3 |
| 20260502100316 | 66 | 101 | 8.0 | 11.0 | 0.00 | 0.00 | 0.00 | 81 | 1023.3 |
| 20260502091035 | 65 | 91 | 6.0 | 8.0 | 0.00 | 0.00 | 0.00 | 83 | 1023.5 |
| 20260502090535 | 65 | 111 | 4.0 | 9.0 | 0.00 | 0.00 | 0.00 | 84 | 1023.6 |
| 20260502071314 | 64 | 84 | 5.0 | 7.0 | 0.00 | 0.00 | 0.00 | 80 | 1023.6 |
| 20260502070537 | 64 | 79 | 4.0 | 6.0 | 0.00 | 0.00 | 0.00 | 79 | 1023.6 |
| 20260502070037 | 64 | 100 | 4.0 | 4.0 | 0.00 | 0.00 | 0.00 | 79 | 1023.7 |
| 20260502065826 | 64 | 69 | 2.0 | 6.0 | 0.00 | 0.00 | 0.00 | 79 | 1023.6 |
| 20260502065318 | 64 | 46 | 3.0 | 7.0 | 0.00 | 0.00 | 0.00 | 79 | 1023.5 |
| 20260502064544 | 64 | 75 | 5.0 | 8.0 | 0.00 | 0.00 | 0.00 | 79 | 1023.5 |
| 20260502064037 | 64 | 56 | 4.0 | 8.0 | 0.00 | 0.00 | 0.00 | 79 | 1023.4 |
| 20260502063539 | 64 | 84 | 4.0 | 7.0 | 0.00 | 0.00 | 0.00 | 79 | 1023.4 |
| 20260502063036 | 64 | 59 | 6.0 | 8.0 | 0.00 | 0.00 | 0.00 | 79 | 1023.4 |
| 20260502062612 | 64 | 64 | 6.0 | 7.0 | 0.00 | 0.00 | 0.00 | 79 | 1023.4 |
| 20260502062600 | 64 | 68 | 5.0 | 8.0 | 0.00 | 0.00 | 0.00 | 79 | 1023.4 |
| 20260502061536 | 64 | 65 | 4.0 | 7.0 | 0.00 | 0.00 | 0.00 | 80 | 1023.4 |
| 20260502061035 | 64 | 70 | 6.0 | 7.0 | 0.00 | 0.00 | 0.00 | 80 | 1023.3 |
| 20260502060534 | 63 | 75 | 4.0 | 7.0 | 0.00 | 0.00 | 0.00 | 80 | 1023.3 |
| 20260502060035 | 63 | 89 | 5.0 | 7.0 | 0.00 | 0.00 | 0.00 | 80 | 1023.3 |
| 20260502055537 | 63 | 61 | 4.0 | 6.0 | 0.00 | 0.00 | 0.00 | 81 | 1023.3 |
| 20260502055036 | 63 | 75 | 4.0 | 6.0 | 0.00 | 0.00 | 0.00 | 81 | 1023.3 |
| 20260502054536 | 63 | 62 | 4.0 | 6.0 | 0.00 | 0.00 | 0.00 | 81 | 1023.3 |
| 20260502054036 | 63 | 54 | 4.0 | 6.0 | 0.00 | 0.00 | 0.00 | 81 | 1023.3 |
| 20260502053535 | 63 | 54 | 4.0 | 7.0 | 0.00 | 0.00 | 0.00 | 81 | 1023.3 |
| 20260502053035 | 63 | 57 | 5.0 | 7.0 | 0.00 | 0.00 | 0.00 | 81 | 1023.2 |
| 20260502052535 | 63 | 53 | 4.0 | 8.0 | 0.00 | 0.00 | 0.00 | 81 | 1023.2 |
| 20260502052036 | 63 | 41 | 6.0 | 8.0 | 0.00 | 0.00 | 0.00 | 81 | 1023.1 |
| 20260502051536 | 63 | 53 | 5.0 | 9.0 | 0.00 | 0.00 | 0.00 | 82 | 1023.1 |
| 20260502051036 | 63 | 65 | 7.0 | 9.0 | 0.00 | 0.00 | 0.00 | 81 | 1023.2 |
| 20260502050627 | 63 | 60 | 3.0 | 7.0 | 0.00 | 0.00 | 0.00 | 82 | 1023.1 |
| 20260502050616 | 63 | 77 | 3.0 | 6.0 | 0.00 | 0.00 | 0.00 | 82 | 1023.1 |
| 20260502045535 | 63 | 56 | 4.0 | 7.0 | 0.00 | 0.00 | 0.00 | 82 | 1023.1 |
| 20260502045039 | 63 | 63 | 4.0 | 6.0 | 0.00 | 0.00 | 0.00 | 82 | 1023.1 |
| 20260502044535 | 63 | 66 | 5.0 | 6.0 | 0.00 | 0.00 | 0.00 | 82 | 1023.1 |
| 20260502044035 | 64 | 75 | 4.0 | 6.0 | 0.00 | 0.00 | 0.00 | 82 | 1023.0 |
| 20260502043535 | 64 | 59 | 4.0 | 8.0 | 0.00 | 0.00 | 0.00 | 81 | 1023.0 |
| 20260502043036 | 64 | 79 | 6.0 | 8.0 | 0.00 | 0.00 | 0.00 | 81 | 1023.0 |
| 20260502042820 | 64 | 68 | 5.0 | 8.0 | 0.00 | 0.00 | 0.00 | 81 | 1023.0 |
| 20260502042035 | 64 | 64 | 6.0 | 9.0 | 0.00 | 0.00 | 0.00 | 81 | 1022.9 |
| 20260502041535 | 64 | 51 | 5.0 | 9.0 | 0.00 | 0.00 | 0.00 | 82 | 1022.9 |
| 20260502041035 | 64 | 64 | 5.0 | 9.0 | 0.00 | 0.00 | 0.00 | 82 | 1022.9 |
| 20260502040535 | 64 | 68 | 6.0 | 9.0 | 0.00 | 0.00 | 0.00 | 82 | 1023.0 |
| 20260502040414 | 64 | 70 | 4.0 | 8.0 | 0.00 | 0.00 | 0.00 | 82 | 1023.1 |
| 20260502040410 | 64 | 60 | 4.0 | 8.0 | 0.00 | 0.00 | 0.00 | 82 | 1023.0 |
| 20260502035036 | 64 | 56 | 6.0 | 8.0 | 0.00 | 0.00 | 0.00 | 82 | 1023.1 |
| 20260502034536 | 64 | 58 | 5.0 | 9.0 | 0.00 | 0.00 | 0.00 | 83 | 1023.1 |
| 20260502034035 | 64 | 57 | 5.0 | 10.0 | 0.00 | 0.00 | 0.00 | 83 | 1023.0 |
| 20260502033535 | 64 | 67 | 7.0 | 10.0 | 0.00 | 0.00 | 0.00 | 82 | 1023.0 |
| 20260502033035 | 64 | 70 | 7.0 | 11.0 | 0.00 | 0.00 | 0.00 | 82 | 1023.0 |
| 20260502032536 | 64 | 51 | 8.0 | 11.0 | 0.00 | 0.00 | 0.00 | 83 | 1023.1 |
| 20260502032309 | 64 | 49 | 7.0 | 10.0 | 0.00 | 0.00 | 0.00 | 83 | 1023.1 |
| 20260502031540 | 64 | 53 | 5.0 | 10.0 | 0.00 | 0.00 | 0.00 | 83 | 1023.2 |
| 20260502031035 | 64 | 66 | 7.0 | 11.0 | 0.00 | 0.00 | 0.00 | 83 | 1023.1 |
| 20260502030537 | 64 | 51 | 7.0 | 11.0 | 0.00 | 0.00 | 0.00 | 83 | 1023.3 |
| 20260502030312 | 64 | 56 | 9.0 | 11.0 | 0.00 | 0.00 | 0.00 | 83 | 1023.3 |
| 20260502025612 | 64 | 67 | 8.0 | 12.0 | 0.00 | 0.00 | 0.00 | 82 | 1023.4 |
| 20260502025601 | 64 | 62 | 7.0 | 12.0 | 0.00 | 0.00 | 0.00 | 83 | 1023.3 |
| 20260502024813 | 64 | 72 | 7.0 | 11.0 | 0.00 | 0.00 | 0.00 | 82 | 1023.4 |
| 20260502024035 | 64 | 65 | 7.0 | 11.0 | 0.00 | 0.00 | 0.00 | 81 | 1023.4 |
| 20260502023850 | 64 | 72 | 7.0 | 10.0 | 0.00 | 0.00 | 0.00 | 80 | 1023.3 |
| 20260502023845 | 64 | 64 | 8.0 | 10.0 | 0.00 | 0.00 | 0.00 | 81 | 1023.3 |
| 20260502022535 | 64 | 66 | 5.0 | 9.0 | 0.00 | 0.00 | 0.00 | 80 | 1023.3 |
| 20260502022035 | 64 | 56 | 6.0 | 10.0 | 0.00 | 0.00 | 0.00 | 80 | 1023.3 |
| 20260502021613 | 64 | 70 | 6.0 | 8.0 | 0.00 | 0.00 | 0.00 | 80 | 1023.4 |
| 20260502021601 | 64 | 64 | 6.0 | 10.0 | 0.00 | 0.00 | 0.00 | 80 | 1023.3 |
| 20260502020536 | 64 | 68 | 5.0 | 8.0 | 0.00 | 0.00 | 0.00 | 80 | 1023.4 |
| 20260502020035 | 64 | 53 | 6.0 | 8.0 | 0.00 | 0.00 | 0.00 | 80 | 1023.3 |
| 20260502015535 | 64 | 58 | 4.0 | 8.0 | 0.00 | 0.00 | 0.00 | 81 | 1023.4 |
| 20260502015035 | 64 | 48 | 6.0 | 12.0 | 0.00 | 0.00 | 0.00 | 81 | 1023.4 |
| 20260502014536 | 64 | 69 | 7.0 | 12.0 | 0.00 | 0.00 | 0.00 | 81 | 1023.3 |
| 20260502014035 | 64 | 48 | 8.0 | 11.0 | 0.00 | 0.00 | 0.00 | 82 | 1023.3 |
| 20260502013610 | 64 | 51 | 9.0 | 12.0 | 0.00 | 0.00 | 0.00 | 82 | 1023.4 |
| 20260502013557 | 64 | 67 | 7.0 | 12.0 | 0.00 | 0.00 | 0.00 | 82 | 1023.4 |
| 20260502012532 | 64 | 60 | 7.0 | 11.0 | 0.00 | 0.00 | 0.00 | 82 | 1023.4 |
| 20260502012034 | 64 | 50 | 8.0 | 11.0 | 0.00 | 0.00 | 0.00 | 81 | 1023.5 |
| 20260502011533 | 64 | 57 | 6.0 | 9.0 | 0.00 | 0.00 | 0.00 | 81 | 1023.6 |
| 20260502011033 | 64 | 79 | 7.0 | 11.0 | 0.00 | 0.00 | 0.00 | 81 | 1023.6 |
| 20260502010532 | 64 | 72 | 8.0 | 11.0 | 0.00 | 0.00 | 0.00 | 80 | 1023.6 |
| 20260502010028 | 64 | 63 | 6.0 | 10.0 | 0.00 | 0.00 | 0.00 | 80 | 1023.7 |
| 20260502005523 | 64 | 70 | 8.0 | 10.0 | 0.00 | 0.00 | 0.00 | 80 | 1023.7 |
| 20260502005022 | 64 | 73 | 4.0 | 6.0 | 0.00 | 0.00 | 0.00 | 80 | 1023.8 |
| 20260502004840 | 64 | 53 | 6.0 | 8.0 | 0.00 | 0.00 | 0.00 | 80 | 1023.9 |
| 20260502004836 | 64 | 65 | 4.0 | 7.0 | 0.00 | 0.00 | 0.00 | 80 | 1023.8 |
| 20260502003524 | 64 | 60 | 6.0 | 8.0 | 0.00 | 0.00 | 0.00 | 79 | 1023.8 |
| 20260502003308 | 64 | 51 | 5.0 | 7.0 | 0.00 | 0.00 | 0.00 | 78 | 1023.9 |
| 20260502002524 | 64 | 64 | 5.0 | 7.0 | 0.00 | 0.00 | 0.00 | 78 | 1024.0 |
| 20260502002023 | 64 | 50 | 6.0 | 8.0 | 0.00 | 0.00 | 0.00 | 77 | 1024.0 |
| 20260502001524 | 64 | 52 | 7.0 | 8.0 | 0.00 | 0.00 | 0.00 | 77 | 1024.1 |
| 20260502001024 | 64 | 70 | 5.0 | 7.0 | 0.00 | 0.00 | 0.00 | 77 | 1024.1 |
| 20260502000521 | 64 | 51 | 4.0 | 6.0 | 0.00 | 0.00 | 0.00 | 76 | 1024.2 |
| 20260502000021 | 64 | 66 | 5.0 | 6.0 | 0.00 | 0.00 | 0.00 | 76 | 1024.3 |
| 20260501235812 | 64 | 70 | 4.0 | 6.0 | 0.00 | 0.00 | 0.00 | 76 | 1024.3 |
| 20260501235305 | 64 | 43 | 4.0 | 6.0 | 0.00 | 0.00 | 0.00 | 76 | 1024.4 |
| 20260501234523 | 64 | 70 | 3.0 | 5.0 | 0.00 | 0.00 | 0.00 | 76 | 1024.5 |
| 20260501234027 | 64 | 64 | 4.0 | 6.0 | 0.00 | 0.00 | 0.00 | 76 | 1024.4 |
| 20260501233812 | 64 | 56 | 4.0 | 6.0 | 0.00 | 0.00 | 0.00 | 76 | 1024.5 |
| 20260501233022 | 64 | 65 | 2.0 | 4.0 | 0.00 | 0.00 | 0.00 | 76 | 1024.4 |
| 20260501232524 | 64 | 64 | 3.0 | 4.0 | 0.00 | 0.00 | 0.00 | 76 | 1024.4 |
| 20260501232021 | 64 | 55 | 2.0 | 5.0 | 0.00 | 0.00 | 0.00 | 76 | 1024.4 |
| 20260501231522 | 64 | 48 | 4.0 | 6.0 | 0.00 | 0.00 | 0.00 | 76 | 1024.4 |
| 20260501231021 | 64 | 49 | 4.0 | 6.0 | 0.00 | 0.00 | 0.00 | 77 | 1024.5 |
| 20260501230521 | 64 | 45 | 5.0 | 6.0 | 0.00 | 0.00 | 0.00 | 78 | 1024.4 |
| 20260501230021 | 64 | 56 | 4.0 | 6.0 | 0.00 | 0.00 | 0.00 | 79 | 1024.5 |
| 20260501225523 | 63 | 53 | 4.0 | 5.0 | 0.00 | 0.00 | 0.00 | 80 | 1024.5 |
| 20260501225309 | 63 | 60 | 4.0 | 6.0 | 0.00 | 0.00 | 0.00 | 81 | 1024.5 |
| 20260501224522 | 63 | 49 | 4.0 | 6.0 | 0.00 | 0.00 | 0.00 | 82 | 1024.5 |
| 20260501224022 | 64 | 65 | 4.0 | 6.0 | 0.00 | 0.00 | 0.00 | 82 | 1024.5 |
| 20260501223521 | 64 | 63 | 4.0 | 6.0 | 0.00 | 0.00 | 0.00 | 82 | 1024.5 |
| 20260501223021 | 64 | 69 | 4.0 | 7.0 | 0.00 | 0.00 | 0.00 | 82 | 1024.4 |
| 20260501222522 | 64 | 82 | 4.0 | 8.0 | 0.00 | 0.00 | 0.00 | 82 | 1024.4 |
| 20260501222021 | 64 | 84 | 6.0 | 8.0 | 0.00 | 0.00 | 0.00 | 82 | 1024.3 |
| 20260501221522 | 64 | 62 | 6.0 | 8.0 | 0.00 | 0.00 | 0.00 | 83 | 1024.2 |
| 20260501221022 | 64 | 69 | 5.0 | 8.0 | 0.00 | 0.00 | 0.00 | 84 | 1024.3 |
| 20260501220541 | 64 | 60 | 6.0 | 9.0 | 0.00 | 0.00 | 0.00 | 84 | 1024.3 |
| 20260501220445 | 63 | 68 | 7.0 | 9.0 | 0.00 | 0.00 | 0.00 | 85 | 1024.3 |
| 20260501215521 | 63 | 63 | 5.0 | 6.0 | 0.00 | 0.00 | 0.00 | 85 | 1024.4 |
| 20260501215024 | 64 | 29 | 4.0 | 6.0 | 0.00 | 0.00 | 0.00 | 86 | 1024.4 |
| 20260501214806 | 63 | 34 | 4.0 | 8.0 | 0.00 | 0.00 | 0.00 | 86 | 1024.5 |
| 20260501214022 | 63 | 57 | 6.0 | 8.0 | 0.00 | 0.00 | 0.00 | 87 | 1024.5 |
| 20260501213522 | 63 | 53 | 4.0 | 9.0 | 0.00 | 0.00 | 0.00 | 88 | 1024.4 |
| 20260501213021 | 63 | 53 | 5.0 | 10.0 | 0.00 | 0.00 | 0.00 | 88 | 1024.4 |
| 20260501212811 | 63 | 52 | 6.0 | 10.0 | 0.00 | 0.00 | 0.00 | 88 | 1024.4 |
| 20260501212021 | 63 | 69 | 7.0 | 12.0 | 0.00 | 0.00 | 0.00 | 88 | 1024.5 |
| 20260501211522 | 64 | 62 | 6.0 | 12.0 | 0.00 | 0.00 | 0.00 | 88 | 1024.5 |
| 20260501211021 | 64 | 68 | 9.0 | 11.0 | 0.00 | 0.00 | 0.00 | 88 | 1024.4 |
| 20260501210811 | 64 | 84 | 6.0 | 10.0 | 0.00 | 0.00 | 0.00 | 87 | 1024.5 |
| 20260501210021 | 64 | 88 | 6.0 | 9.0 | 0.00 | 0.00 | 0.00 | 87 | 1024.4 |
| 20260501205521 | 64 | 42 | 7.0 | 11.0 | 0.00 | 0.00 | 0.00 | 87 | 1024.4 |
| 20260501205305 | 64 | 58 | 8.0 | 11.0 | 0.00 | 0.00 | 0.00 | 87 | 1024.5 |
| 20260501204522 | 64 | 68 | 6.0 | 12.0 | 0.00 | 0.00 | 0.00 | 87 | 1024.5 |
| 20260501204021 | 64 | 54 | 7.0 | 12.0 | 0.00 | 0.00 | 0.00 | 87 | 1024.5 |
| 20260501203521 | 64 | 59 | 6.0 | 10.0 | 0.00 | 0.00 | 0.00 | 87 | 1024.5 |
| 20260501203022 | 64 | 56 | 7.0 | 10.0 | 0.00 | 0.00 | 0.00 | 86 | 1024.3 |
| 20260501202521 | 64 | 43 | 6.0 | 13.0 | 0.00 | 0.00 | 0.00 | 86 | 1024.3 |
| 20260501202021 | 64 | 80 | 7.0 | 13.0 | 0.00 | 0.00 | 0.00 | 86 | 1024.3 |
| 20260501201525 | 64 | 107 | 9.0 | 13.0 | 0.00 | 0.00 | 0.00 | 86 | 1024.3 |
| 20260501201302 | 64 | 62 | 8.0 | 11.0 | 0.00 | 0.00 | 0.00 | 86 | 1024.2 |
| 20260501200521 | 64 | 72 | 6.0 | 9.0 | 0.00 | 0.00 | 0.00 | 86 | 1024.2 |
| 20260501200021 | 64 | 58 | 7.0 | 11.0 | 0.00 | 0.00 | 0.00 | 86 | 1024.2 |
| 20260501195521 | 64 | 37 | 8.0 | 11.0 | 0.00 | 0.00 | 0.00 | 87 | 1024.0 |
| 20260501195021 | 63 | 68 | 7.0 | 11.0 | 0.00 | 0.00 | 0.00 | 87 | 1024.0 |
| 20260501194521 | 63 | 54 | 9.0 | 13.0 | 0.00 | 0.00 | 0.00 | 87 | 1023.9 |
| 20260501194309 | 63 | 55 | 9.0 | 13.0 | 0.00 | 0.00 | 0.00 | 87 | 1023.9 |
| 20260501193522 | 63 | 79 | 10.0 | 13.0 | 0.00 | 0.00 | 0.00 | 87 | 1023.9 |
| 20260501193022 | 63 | 61 | 8.0 | 11.0 | 0.00 | 0.00 | 0.00 | 87 | 1023.8 |
| 20260501192521 | 63 | 57 | 7.0 | 12.0 | 0.00 | 0.00 | 0.00 | 87 | 1023.8 |
| 20260501192021 | 63 | 51 | 8.0 | 14.0 | 0.00 | 0.00 | 0.00 | 87 | 1023.7 |
| 20260501191521 | 64 | 51 | 8.0 | 15.0 | 0.00 | 0.00 | 0.00 | 87 | 1023.7 |
| 20260501191309 | 64 | 65 | 10.0 | 15.0 | 0.00 | 0.00 | 0.00 | 87 | 1023.6 |
| 20260501190521 | 64 | 58 | 11.0 | 15.0 | 0.00 | 0.00 | 0.00 | 86 | 1023.6 |
| 20260501190309 | 64 | 98 | 10.0 | 15.0 | 0.00 | 0.00 | 0.00 | 86 | 1023.5 |
| 20260501185527 | 64 | 63 | 10.0 | 15.0 | 0.00 | 0.00 | 0.00 | 86 | 1023.4 |
| 20260501185023 | 64 | 65 | 11.0 | 17.0 | 0.00 | 0.00 | 0.00 | 86 | 1023.4 |
| 20260501184521 | 64 | 73 | 13.0 | 17.0 | 0.00 | 0.00 | 0.00 | 86 | 1023.3 |
| 20260501184028 | 64 | 73 | 12.0 | 16.0 | 0.00 | 0.00 | 0.00 | 85 | 1023.3 |
| 20260501183759 | 64 | 71 | 12.0 | 20.0 | 0.00 | 0.00 | 0.00 | 86 | 1023.2 |
| 20260501183301 | 64 | 105 | 14.0 | 20.0 | 0.00 | 0.00 | 0.00 | 85 | 1023.1 |
| 20260501182522 | 64 | 74 | 14.0 | 19.0 | 0.00 | 0.00 | 0.00 | 85 | 1023.0 |
| 20260501182034 | 64 | 64 | 13.0 | 18.0 | 0.00 | 0.00 | 0.00 | 84 | 1023.0 |
| 20260501181524 | 64 | 67 | 11.0 | 21.0 | 0.00 | 0.00 | 0.00 | 84 | 1022.9 |
| 20260501181021 | 64 | 57 | 15.0 | 21.0 | 0.00 | 0.00 | 0.00 | 84 | 1022.8 |
| 20260501180531 | 64 | 84 | 17.0 | 21.0 | 0.00 | 0.00 | 0.00 | 83 | 1022.8 |
| 20260501180033 | 64 | 70 | 14.0 | 22.0 | 0.00 | 0.00 | 0.00 | 83 | 1022.8 |
| 20260501175523 | 64 | 66 | 13.0 | 23.0 | 0.00 | 0.00 | 0.00 | 84 | 1022.7 |
| 20260501175033 | 64 | 83 | 16.0 | 23.0 | 0.00 | 0.00 | 0.00 | 83 | 1022.6 |
| 20260501174520 | 64 | 83 | 17.0 | 24.0 | 0.00 | 0.00 | 0.00 | 83 | 1022.6 |
| 20260501174021 | 64 | 39 | 18.0 | 24.0 | 0.00 | 0.00 | 0.00 | 83 | 1022.6 |
| 20260501173601 | 64 | 82 | 15.0 | 22.0 | 0.00 | 0.00 | 0.00 | 82 | 1022.5 |
| 20260501173538 | 64 | 82 | 18.0 | 23.0 | 0.00 | 0.00 | 0.00 | 83 | 1022.6 |
| 20260501172522 | 64 | 60 | 17.0 | 22.0 | 0.00 | 0.00 | 0.00 | 82 | 1022.6 |
| 20260501172021 | 64 | 56 | 14.0 | 22.0 | 0.00 | 0.00 | 0.00 | 82 | 1022.5 |
| 20260501171520 | 64 | 46 | 15.0 | 22.0 | 0.00 | 0.00 | 0.00 | 81 | 1022.5 |
| 20260501171020 | 64 | 69 | 15.0 | 23.0 | 0.00 | 0.00 | 0.00 | 81 | 1022.5 |
| 20260501170534 | 65 | 65 | 17.0 | 23.0 | 0.00 | 0.00 | 0.00 | 80 | 1022.5 |
| 20260501170020 | 65 | 115 | 13.0 | 21.0 | 0.00 | 0.00 | 0.00 | 80 | 1022.5 |
| 20260501165808 | 65 | 57 | 13.0 | 25.0 | 0.00 | 0.00 | 0.00 | 80 | 1022.5 |
| 20260501165020 | 64 | 43 | 15.0 | 25.0 | 0.00 | 0.00 | 0.00 | 80 | 1022.4 |
| 20260501164521 | 65 | 77 | 17.0 | 26.0 | 0.00 | 0.00 | 0.00 | 79 | 1022.4 |
| 20260501164021 | 65 | 100 | 16.0 | 26.0 | 0.00 | 0.00 | 0.00 | 79 | 1022.5 |
| 20260501163520 | 65 | 159 | 15.0 | 23.0 | 0.00 | 0.00 | 0.00 | 80 | 1022.5 |
| 20260501163020 | 65 | 99 | 16.0 | 23.0 | 0.00 | 0.00 | 0.00 | 79 | 1022.5 |
| 20260501162520 | 65 | 72 | 17.0 | 22.0 | 0.00 | 0.00 | 0.00 | 78 | 1022.5 |
| 20260501162021 | 65 | 66 | 15.0 | 23.0 | 0.00 | 0.00 | 0.00 | 78 | 1022.5 |
| 20260501161520 | 65 | 85 | 18.0 | 25.0 | 0.00 | 0.00 | 0.00 | 78 | 1022.5 |
| 20260501161021 | 65 | 75 | 19.0 | 25.0 | 0.00 | 0.00 | 0.00 | 77 | 1022.4 |
| 20260501160520 | 65 | 81 | 19.0 | 25.0 | 0.00 | 0.00 | 0.00 | 77 | 1022.3 |
| 20260501160304 | 65 | 53 | 18.0 | 26.0 | 0.00 | 0.00 | 0.00 | 77 | 1022.3 |